Preview of NWS' New Version of Forecast
This preview is not operational and should not be used for support decisions.

Regional Weather Roundup (RWR)

Issued by National Weather Service (NWS)

                            
000
ASUS43 KLSX 251107
RWRMO 

WEATHER SUMMARY FOR MISSOURI
NATIONAL WEATHER SERVICE SPRINGFIELD MO
600 AM CDT SUN AUG 25 2019

NOTE: "FAIR" INDICATES FEW OR NO CLOUDS BELOW 12,000 FEET WITH NO
       SIGNIFICANT WEATHER AND/OR OBSTRUCTIONS TO VISIBILITY.
       CURRENT SKY AND/OR WEATHER CONDITIONS ARE NOT AVAILABLE FOR
       CHILLICOTHE AND FARMINGTON.

MOZ001>031-035>038-043-044-053-054-251200-
...NORTHERN AND WESTERN MISSOURI...
  
CITY           SKY/WX    TMP DP  RH WIND       PRES   REMARKS
KANSAS CTY INT CLOUDY    68  61  78 SE17      29.89F                  
KANSAS C DTWN  CLOUDY    70  61  73 E9G18     29.90F                  
LEE'S SUMMIT   CLOUDY    68  61  78 SE10G20   29.93F                  
ST JOSEPH      CLOUDY    68  60  75 E6        29.90F                  
CHILLICOTHE      N/A     67  60  78 VRB5      29.98F                  
KIRKSVILLE     CLOUDY    63  60  90 E7        30.03F                  
     
$$
MOZ066>068-077>081-088>096-101>105-251200-
...SOUTHWEST MISSOURI...
  
CITY           SKY/WX    TMP DP  RH WIND       PRES   REMARKS
SPRINGFIELD    CLOUDY    68  63  84 SE14      29.96F                  
JOPLIN         CLOUDY    71  69  93 SE10      29.92F                  
               
$$
MOZ032>034-039>042-045>050-055>058-069>072-251200-
...CENTRAL MISSOURI...  
  
CITY           SKY/WX    TMP DP  RH WIND       PRES   REMARKS
COLUMBIA       CLOUDY    65  61  87 E7        30.00F                  
JEFFERSON CITY CLOUDY    67  62  84 E3        29.99F                  
ROLLA          CLOUDY    64  61  90 SE6       30.00F                  
SEDALIA        CLOUDY    64  62  93 E7        29.96F                  
WHITEMAN AFB   CLOUDY    67  63  89 SE6       29.91F                  
WARRENSBURG    CLOUDY    66  61  82 E5        29.95F                  
OSAGE BEACH    CLOUDY    66  63  90 SE3       29.99F                  
               
$$
MOZ051-052-059>065-251200-
...EAST CENTRAL MISSOURI...
  
CITY           SKY/WX    TMP DP  RH WIND       PRES   REMARKS
ST LOUIS INTL  CLOUDY    68  58  70 E8        30.02S                  
SPIRIT OF STL  MOCLDY    67  61  81 E5        30.00F                  
ST CHARLES       N/A    N/A N/A N/A MISG      30.01F                  
                   
$$
MOZ072>076-082>087-097>100-106>115-251200-
...SOUTH CENTRAL AND SOUTHEAST MISSOURI...
  
CITY           SKY/WX    TMP DP  RH WIND       PRES   REMARKS
CAPE GIRARDEAU CLOUDY    70  61  73 E5        29.99R                  
FARMINGTON     LGT RAIN  64  63  94 CALM      30.02F                  
POPLAR BLUFF   MOCLDY    68  63  84 NE6       29.97S                  
WEST PLAINS    CLOUDY    65  63  93 E5        30.00F                  
                                       
$$